Zurück zum Katalog

FLOCK 4G 30

AktivWissenschaftSSO
NORAD 62679·PAYLOAD·🇺🇸 United States

Gestartet Jan 14, 2025 von Vandenberg Space Force Base

Loading…

Nächste Überflüge (nächste 24 Stunden)

TLE

AktuellSource: Space-Track

Epoche: Sep 13, 2026, 16:36 UTC

1 62679U 25009BY  26256.69203538  .00039495  00000-0  10413-2 0  9994
2 62679  97.3864 338.1933 0002099  23.9620 336.1723 15.38391401150120

Verfolge FLOCK 4G 30 in Echtzeit mit AllMySat

Download on the App Store